�������l�o���
Date,Time,MP-1(��Sv/h),MP-2(��Sv/h),MP-3(��Sv/h),MP-4(��Sv/h),MP-5(��Sv/h),MP-6(��Sv/h),MP-7(��Sv/h),MP-8(��Sv/h),����,����(m/s),���J
2020/09/06,00:00,0.662,0.931,0.600,1.153,0.818,0.379,0.668,0.628,�k��,4.0,��
2020/09/06,00:10,0.662,0.930,0.603,1.155,0.821,0.381,0.667,0.630,�k��,3.9,��
2020/09/06,00:20,0.660,0.932,0.599,1.154,0.821,0.382,0.669,0.630,�k��,3.6,��
2020/09/06,00:30,0.659,0.930,0.601,1.153,0.821,0.381,0.668,0.631,�k��,4.1,��
2020/09/06,00:40,0.660,0.931,0.602,1.154,0.819,0.382,0.668,0.630,�k�k��,4.2,��
2020/09/06,00:50,0.660,0.930,0.601,1.153,0.818,0.381,0.670,0.631,�k�k��,4.8,��
2020/09/06,01:00,0.661,0.930,0.602,1.154,0.820,0.383,0.668,0.631,�k�k��,5.4,��
2020/09/06,01:10,0.660,0.930,0.600,1.153,0.820,0.382,0.667,0.630,�k�k��,5.8,��
2020/09/06,01:20,0.662,0.930,0.601,1.156,0.819,0.381,0.669,0.630,�k�k��,5.4,��
2020/09/06,01:30,0.661,0.930,0.599,1.154,0.821,0.383,0.668,0.630,�k��,5.1,��
2020/09/06,01:40,0.663,0.932,0.600,1.155,0.820,0.382,0.670,0.631,�k�k��,5.3,��
2020/09/06,01:50,0.662,0.930,0.602,1.153,0.818,0.382,0.670,0.631,�k�k��,5.2,��
2020/09/06,02:00,0.661,0.929,0.601,1.156,0.819,0.382,0.669,0.631,�k�k��,5.8,��
2020/09/06,02:10,0.659,0.931,0.602,1.158,0.820,0.381,0.668,0.633,�k�k��,5.7,��
2020/09/06,02:20,0.660,0.932,0.602,1.155,0.822,0.381,0.668,0.631,�k�k��,5.9,��
2020/09/06,02:30,0.660,0.934,0.602,1.155,0.819,0.381,0.668,0.632,�k�k��,5.7,��
2020/09/06,02:40,0.661,0.931,0.603,1.153,0.820,0.380,0.670,0.629,�k�k��,5.0,��
2020/09/06,02:50,0.660,0.930,0.602,1.154,0.819,0.381,0.669,0.629,�k��,5.7,��
2020/09/06,03:00,0.662,0.931,0.603,1.153,0.821,0.381,0.669,0.630,�k�k��,5.4,��
2020/09/06,03:10,0.661,0.931,0.603,1.154,0.823,0.380,0.670,0.631,�k�k��,5.5,��
2020/09/06,03:20,0.661,0.931,0.602,1.155,0.820,0.381,0.669,0.630,�k�k��,6.0,��
2020/09/06,03:30,0.661,0.930,0.602,1.155,0.821,0.381,0.670,0.630,�k�k��,5.4,��
2020/09/06,03:40,0.662,0.930,0.601,1.155,0.821,0.381,0.669,0.630,�k�k��,5.1,��
2020/09/06,03:50,0.662,0.931,0.601,1.155,0.822,0.381,0.670,0.631,�k�k��,4.6,��
2020/09/06,04:00,0.660,0.930,0.602,1.156,0.821,0.381,0.670,0.632,�k�k��,4.4,��
2020/09/06,04:10,0.663,0.930,0.602,1.155,0.823,0.382,0.668,0.630,�k�k��,4.2,��
2020/09/06,04:20,0.662,0.931,0.602,1.153,0.822,0.382,0.670,0.632,�k,4.5,��
2020/09/06,04:30,0.661,0.930,0.602,1.155,0.823,0.382,0.670,0.631,�k,3.8,��
2020/09/06,04:40,0.661,0.934,0.602,1.156,0.822,0.382,0.671,0.631,�k,3.4,��
2020/09/06,04:50,0.662,0.933,0.601,1.156,0.822,0.383,0.670,0.631,�k�k��,3.5,��
2020/09/06,05:00,0.661,0.932,0.603,1.157,0.823,0.381,0.669,0.631,�k�k��,3.1,��
2020/09/06,05:10,0.662,0.933,0.602,1.156,0.824,0.380,0.669,0.631,�k��,3.1,��
2020/09/06,05:20,0.662,0.933,0.600,1.156,0.822,0.382,0.670,0.631,�k��,3.7,��
2020/09/06,05:30,0.662,0.931,0.601,1.157,0.822,0.383,0.669,0.629,�k��,4.7,��
2020/09/06,05:40,0.661,0.934,0.601,1.156,0.822,0.381,0.669,0.630,�k�k��,4.6,��
2020/09/06,05:50,0.661,0.933,0.602,1.157,0.822,0.381,0.668,0.630,�k�k��,5.0,��
2020/09/06,06:00,0.661,0.934,0.604,1.158,0.824,0.384,0.671,0.631,�k�k��,5.1,��
2020/09/06,06:10,0.663,0.935,0.603,1.159,0.825,0.382,0.669,0.632,�k�k��,4.3,��
2020/09/06,06:20,0.663,0.934,0.603,1.156,0.824,0.382,0.670,0.631,�k��,5.7,��
2020/09/06,06:30,0.663,0.934,0.604,1.156,0.824,0.383,0.670,0.632,�k�k��,5.3,��
2020/09/06,06:40,0.664,0.934,0.604,1.156,0.822,0.383,0.671,0.631,�k�k��,5.3,��
2020/09/06,06:50,0.664,0.935,0.603,1.158,0.823,0.383,0.669,0.632,�k��,4.1,��
2020/09/06,07:00,0.663,0.933,0.603,1.159,0.823,0.383,0.673,0.631,�k�k��,4.7,��
2020/09/06,07:10,0.665,0.933,0.603,1.159,0.822,0.384,0.670,0.631,�k�k��,3.9,��
2020/09/06,07:20,0.664,0.937,0.603,1.157,0.825,0.384,0.670,0.632,�k�k��,4.1,��
2020/09/06,07:30,0.664,0.936,0.602,1.159,0.823,0.382,0.671,0.634,�k��,3.8,��
2020/09/06,07:40,0.665,0.936,0.602,1.154,0.823,0.383,0.671,0.632,�k�k��,4.7,��
2020/09/06,07:50,0.665,0.936,0.603,1.158,0.822,0.380,0.670,0.632,�k��,4.6,��
2020/09/06,08:00,0.664,0.937,0.603,1.157,0.825,0.381,0.669,0.631,�k�k��,3.6,��
2020/09/06,08:10,0.665,0.937,0.605,1.158,0.825,0.383,0.670,0.631,�k�k��,2.6,��
2020/09/06,08:20,0.665,0.933,0.603,1.156,0.827,0.383,0.671,0.629,�k�k��,3.9,��
2020/09/06,08:30,0.664,0.935,0.603,1.157,0.826,0.382,0.670,0.629,�k�k��,3.6,��
2020/09/06,08:40,0.667,0.937,0.603,1.161,0.825,0.382,0.671,0.628,�k�k��,3.4,��
2020/09/06,08:50,0.664,0.936,0.602,1.157,0.825,0.383,0.670,0.629,�k�k��,3.2,��
2020/09/06,09:00,0.663,0.937,0.602,1.157,0.827,0.383,0.671,0.629,�k,2.3,��
2020/09/06,09:10,0.664,0.939,0.602,1.160,0.829,0.382,0.671,0.629,�k�k��,2.9,��
2020/09/06,09:20,0.667,0.938,0.603,1.156,0.827,0.383,0.671,0.630,�k�k��,2.6,��
2020/09/06,09:30,0.665,0.937,0.603,1.156,0.827,0.384,0.673,0.630,�k�k��,3.3,��
2020/09/06,09:40,0.665,0.937,0.604,1.161,0.826,0.383,0.671,0.631,�k�k��,3.2,��
2020/09/06,09:50,0.668,0.939,0.603,1.161,0.828,0.383,0.671,0.631,�k�k��,4.0,��
2020/09/06,10:00,0.665,0.938,0.605,1.158,0.829,0.382,0.672,0.629,�k�k��,3.6,��
2020/09/06,10:10,0.667,0.941,0.605,1.160,0.826,0.383,0.672,0.631,�k�k��,4.3,��
2020/09/06,10:20,0.666,0.938,0.605,1.161,0.828,0.383,0.672,0.630,�k�k��,4.8,��
2020/09/06,10:30,0.666,0.940,0.606,1.160,0.828,0.384,0.670,0.632,�k�k��,4.8,��
2020/09/06,10:40,0.667,0.939,0.606,1.163,0.828,0.383,0.673,0.630,�k��,4.8,��
2020/09/06,10:50,0.669,0.938,0.606,1.162,0.827,0.382,0.673,0.632,�k�k��,5.4,��
2020/09/06,11:00,0.669,0.939,0.606,1.162,0.831,0.384,0.674,0.631,�k��,5.2,��
2020/09/06,11:10,0.669,0.941,0.606,1.161,0.830,0.384,0.672,0.632,�k�k��,5.2,��
2020/09/06,11:20,0.669,0.942,0.605,1.162,0.830,0.383,0.670,0.632,�k��,5.4,��
2020/09/06,11:30,0.667,0.942,0.610,1.164,0.830,0.384,0.673,0.630,�k�k��,5.4,��
2020/09/06,11:40,0.668,0.942,0.607,1.163,0.830,0.384,0.673,0.632,�k��,5.3,��
2020/09/06,11:50,0.669,0.941,0.608,1.164,0.831,0.384,0.671,0.630,�k�k��,4.9,��
2020/09/06,12:00,0.666,0.942,0.608,1.164,0.833,0.384,0.672,0.630,�k��,4.8,��
2020/09/06,12:10,0.668,0.942,0.607,1.164,0.830,0.384,0.673,0.631,�k�k��,4.9,��
2020/09/06,12:20,0.667,0.941,0.607,1.163,0.831,0.383,0.674,0.631,�k��,4.3,�L
2020/09/06,12:30,0.668,0.943,0.609,1.165,0.835,0.384,0.673,0.630,�k��,4.2,��
2020/09/06,12:40,0.669,0.943,0.608,1.162,0.833,0.385,0.672,0.633,�k�k��,3.9,��
2020/09/06,12:50,0.669,0.942,0.608,1.164,0.835,0.383,0.674,0.632,�k��,3.8,��
2020/09/06,13:00,0.668,0.942,0.607,1.164,0.833,0.385,0.675,0.632,�k�k��,4.0,��
2020/09/06,13:10,0.668,0.946,0.608,1.166,0.836,0.383,0.673,0.632,�k�k��,3.8,��
2020/09/06,13:20,0.669,0.943,0.609,1.163,0.835,0.386,0.673,0.631,�k�k��,3.4,��
2020/09/06,13:30,0.670,0.945,0.607,1.165,0.833,0.386,0.673,0.633,�k�k��,3.2,��
2020/09/06,13:40,0.670,0.944,0.609,1.164,0.835,0.385,0.675,0.632,�k��,3.0,��
2020/09/06,13:50,0.670,0.946,0.610,1.163,0.834,0.383,0.676,0.633,���k��,3.2,��
2020/09/06,14:00,0.670,0.948,0.608,1.165,0.834,0.385,0.674,0.632,���k��,3.7,��
2020/09/06,14:10,0.668,0.945,0.607,1.164,0.835,0.385,0.674,0.633,�k��,4.2,��
2020/09/06,14:20,0.670,0.946,0.607,1.163,0.833,0.384,0.673,0.633,�k�k��,3.7,��
2020/09/06,14:30,0.670,0.946,0.609,1.165,0.836,0.384,0.673,0.633,�k�k��,3.1,��
2020/09/06,14:40,0.670,0.944,0.609,1.164,0.833,0.385,0.674,0.633,�k��,2.2,��
2020/09/06,14:50,0.669,0.946,0.609,1.168,0.834,0.384,0.676,0.630,�k��,1.5,��
2020/09/06,15:00,0.673,0.945,0.610,1.168,0.837,0.384,0.674,0.633,�k�k��,2.3,��
2020/09/06,15:10,0.670,0.946,0.607,1.167,0.836,0.385,0.676,0.633,���k��,2.3,��
2020/09/06,15:20,0.672,0.945,0.608,1.167,0.835,0.384,0.674,0.633,�k��,2.3,��
2020/09/06,15:30,0.670,0.947,0.608,1.165,0.834,0.384,0.676,0.632,�k��,2.0,��
2020/09/06,15:40,0.670,0.946,0.609,1.164,0.836,0.385,0.674,0.632,���k��,1.5,��
2020/09/06,15:50,0.671,0.947,0.610,1.165,0.835,0.384,0.673,0.632,�k��,1.4,��
2020/09/06,16:00,0.669,0.948,0.608,1.168,0.835,0.385,0.675,0.633,�k��,1.7,��
2020/09/06,16:10,0.670,0.947,0.608,1.169,0.835,0.385,0.673,0.632,�k��,1.5,��
2020/09/06,16:20,0.671,0.947,0.609,1.167,0.835,0.385,0.674,0.633,�k��,1.5,��
2020/09/06,16:30,0.670,0.948,0.608,1.165,0.838,0.384,0.673,0.632,���k��,1.5,��
2020/09/06,16:40,0.669,0.950,0.608,1.167,0.835,0.385,0.673,0.633,��,2.3,��
2020/09/06,16:50,0.672,0.950,0.609,1.168,0.838,0.386,0.674,0.632,��,2.0,��
2020/09/06,17:00,0.672,0.947,0.609,1.169,0.839,0.385,0.674,0.631,��,2.3,��
2020/09/06,17:10,0.673,0.947,0.609,1.170,0.838,0.385,0.674,0.632,���쓌,2.3,��
2020/09/06,17:20,0.671,0.945,0.611,1.168,0.837,0.385,0.673,0.632,�쓌,2.2,��
2020/09/06,17:30,0.672,0.947,0.610,1.167,0.839,0.387,0.675,0.635,�쓌,2.3,��
2020/09/06,17:40,0.670,0.948,0.610,1.166,0.840,0.387,0.674,0.632,�쓌,2.0,��
2020/09/06,17:50,0.670,0.950,0.612,1.167,0.837,0.387,0.675,0.635,��쓌,1.9,��
2020/09/06,18:00,0.672,0.949,0.612,1.169,0.837,0.387,0.674,0.634,�쓌,0.8,��
2020/09/06,18:10,0.671,0.948,0.611,1.166,0.837,0.386,0.675,0.635,��,1.5,��
2020/09/06,18:20,0.670,0.949,0.611,1.170,0.838,0.387,0.674,0.634,��,1.7,��
2020/09/06,18:30,0.672,0.949,0.611,1.168,0.838,0.386,0.675,0.633,��쓌,2.5,��
2020/09/06,18:40,0.671,0.949,0.610,1.165,0.840,0.387,0.674,0.633,��,2.6,��
2020/09/06,18:50,0.671,0.949,0.612,1.168,0.838,0.387,0.676,0.635,��,2.6,��
2020/09/06,19:00,0.672,0.949,0.612,1.168,0.840,0.386,0.675,0.634,��,3.7,��
2020/09/06,19:10,0.672,0.951,0.612,1.167,0.838,0.385,0.677,0.635,��쓌,3.2,��
2020/09/06,19:20,0.671,0.951,0.609,1.169,0.836,0.386,0.676,0.633,��쓌,2.9,��
2020/09/06,19:30,0.672,0.948,0.609,1.169,0.839,0.386,0.677,0.634,��쓌,3.5,��
2020/09/06,19:40,0.673,0.951,0.611,1.167,0.837,0.386,0.677,0.635,��쓌,3.2,��
2020/09/06,19:50,0.672,0.948,0.612,1.168,0.837,0.386,0.675,0.633,��,3.4,��
2020/09/06,20:00,0.672,0.950,0.611,1.168,0.840,0.387,0.677,0.634,��,3.2,��
2020/09/06,20:10,0.672,0.950,0.610,1.170,0.836,0.387,0.676,0.635,��,2.6,��
2020/09/06,20:20,0.671,0.950,0.613,1.167,0.839,0.385,0.675,0.633,��쐼,2.0,��
2020/09/06,20:30,0.672,0.951,0.613,1.167,0.838,0.385,0.675,0.634,��쐼,2.3,��
2020/09/06,20:40,0.671,0.949,0.611,1.168,0.838,0.387,0.676,0.634,��,1.7,��
2020/09/06,20:50,0.673,0.952,0.612,1.168,0.839,0.387,0.676,0.634,��쓌,2.3,��
2020/09/06,21:00,0.672,0.950,0.611,1.168,0.838,0.386,0.676,0.635,��,2.2,��
2020/09/06,21:10,0.672,0.949,0.610,1.170,0.838,0.386,0.675,0.634,�쓌,2.6,��
2020/09/06,21:20,0.674,0.950,0.611,1.170,0.840,0.385,0.674,0.634,�쓌,3.0,��
2020/09/06,21:30,0.672,0.950,0.611,1.169,0.837,0.385,0.675,0.634,�쓌,2.6,��
2020/09/06,21:40,0.671,0.949,0.610,1.168,0.839,0.386,0.675,0.634,��쓌,2.8,��
2020/09/06,21:50,0.670,0.949,0.611,1.170,0.839,0.385,0.677,0.636,��쓌,2.9,��
2020/09/06,22:00,0.673,0.949,0.611,1.168,0.837,0.387,0.676,0.634,��,2.8,��
2020/09/06,22:10,0.672,0.951,0.611,1.170,0.838,0.387,0.677,0.633,��,2.5,��
2020/09/06,22:20,0.671,0.952,0.613,1.167,0.838,0.387,0.675,0.634,��쐼,2.3,��
2020/09/06,22:30,0.674,0.951,0.612,1.167,0.839,0.387,0.677,0.634,��쐼,2.0,��
2020/09/06,22:40,0.671,0.948,0.611,1.168,0.839,0.386,0.673,0.633,��쐼,2.5,��
2020/09/06,22:50,0.673,0.952,0.613,1.169,0.839,0.385,0.676,0.634,��쐼,2.3,��
2020/09/06,23:00,0.672,0.950,0.613,1.167,0.840,0.385,0.675,0.634,��쐼,2.5,��
2020/09/06,23:10,0.672,0.950,0.611,1.171,0.838,0.386,0.676,0.634,��쐼,2.8,��
2020/09/06,23:20,0.673,0.949,0.611,1.168,0.838,0.386,0.675,0.634,��쐼,3.9,��
2020/09/06,23:30,0.674,0.951,0.612,1.168,0.839,0.387,0.676,0.633,��,0.9,��
2020/09/06,23:40,0.672,0.951,0.612,1.169,0.839,0.387,0.676,0.634,��쓌,3.4,��
2020/09/06,23:50,0.671,0.948,0.611,1.169,0.839,0.386,0.676,0.634,��,4.0,��
